Regional Weather Roundup
Issued by NWS Kansas City/Pleasant Hill, MO

Home | Current Version | Previous Version | Graphics & Text | Print | Product List | Glossary Off
Versions: 1 2 3 4 5 6 7 8 9 10 11 12 13 14 15 16 17 18 19 20 21 22 23 24 25 26 27

000
ASUS43 KEAX 281010
RWREAX

WEATHER ROUNDUP FOR EASTERN KANSAS AND NORTHWEST MISSOURI
NATIONAL WEATHER SERVICE KANSAS CITY/PLEASANT HILL MO
500 AM CDT SAT MAY 28 2016

KSZ040-057-103>105-MOZ028-029-037-043-281100-
...KANSAS CITY METROPOLITAN AREA...

CITY           SKY/WX    TMP DP  RH WIND       PRES   REMARKS
K.C. INTL      CLOUDY    59  57  93 S6        29.78R
K.C. DOWNTOWN  MOCLDY    61  59  93 CALM      29.77R
LEES SUMMIT    PTCLDY    59  57  93 SE6       29.79R
OLATHE - IXD   CLOUDY    59  58  96 E5        29.78R
OLATHE - OJC   MOCLDY    57  56  96 SE3       29.78R
LAWRENCE       CLOUDY    60  59  96 E5        29.77R

$$

MOZ001>008-011>017-020>025-030>033-038>040-044>046-053-054-281100-
...NORTHERN AND CENTRAL MISSOURI...

CITY           SKY/WX    TMP DP  RH WIND       PRES   REMARKS
ST. JOSEPH     MOCLDY    60  58  92 S6        29.76S
MOSBY          SUNNY     57  57 100 CALM      29.79R
WARRENSBURG    CLOUDY    55  55 100 CALM      29.79R FOG
WHITEMAN AFB   CLOUDY    60  60  99 S3        29.78R
CLINTON        CLOUDY    63  63 100 S7        29.79S
SEDALIA        PTCLDY    63  59  87 S9        29.80R
WARSAW         NOT AVBL
CHILLICOTHE      N/A     61  60  97 S5        29.78R
KIRKSVILLE     CLOUDY    64  63  96 S5        29.78R

$$

MOZ041-047>049-056>058-063>065-088>090-097-281100-
...EASTERN AND SOUTHERN MISSOURI...

CITY           SKY/WX    TMP DP  RH WIND       PRES   REMARKS
ST. LOUIS INTL MOCLDY    69  64  84 S12       29.88R
SPIRIT OF STL  CLOUDY    68  65  90 S7        29.85S
COLUMBIA       PTCLDY    66  65  96 S12       29.81S
JEFFERSON CITY PTCLDY    67  64  90 SE7       29.82R
ROLLA          PTCLDY    64  63  96 S9        29.84S
SPRINGFIELD    CLOUDY    63  60  90 SE13      29.84R
JOPLIN         CLEAR     64  60  87 S13       29.82R
WEST PLAINS    CLOUDY    67  63  87 S6        29.90R

$$

IAZ060-094-KSZ022-034>040-054-083-096-NEZ052-066-093-281100-
...KANSAS...SOUTHEAST NEBRASKA AND IOWA...

CITY           SKY/WX    TMP DP  RH WIND       PRES   REMARKS
TOPEKA         CLOUDY    60  58  92 E7        29.75S
MANHATTAN      CLOUDY    60  57  89 CALM      29.73S
EMPORIA        CLOUDY    60  58  92 S9        29.74R
CHANUTE        PTCLDY    63  60  90 S14       29.76R
WICHITA        PTCLDY    57  54  89 S7        29.74R
OMAHA          CLOUDY    63  59  87 S10       29.73R
LINCOLN        CLOUDY    58  56  93 W3        29.75S
FALLS CITY     CLOUDY    59  57  93 SE7       29.73S
LAMONI         CLOUDY    62  61  96 E3        29.75R
DES MOINES     CLOUDY    63  60  90 S3        29.74S

$$





USA.gov is the U.S. government's official web portal to all federal, state and local government web resources and services.